Dewpoint
49 53 52 52 52 53 54 54 55 56 60 59 54 51 50 50 51 54 56 59 59 59 59 56 57 57 54 53 53 50 47 43 41 39 43 43 43 42 38 37 35 34 34
49 53 53 51 54 53 53 54 54 55 59 60 57 53 51 48 51 54 60 61 60 59 58 58 56 56 53 53 52 49 45 43 42 43 43 42 41 40 40 37 36 39 36
44 49 51 52 53 52 53 53 54 56 57 56 56 54 51 51 50 53 56 61 60 59 58 58 56 55 54 52 51 49 47 41 44 46 43 41 38 35 38 40 39 40 36
43 44 47 52 53 54 55 55 55 55 57 57 57 55 50 51 54 57 58 59 61 60 57 56 56 55 53 52 51 47 46 44 44 44 41 43 41 34 32 36 39 38 37
42 44 45 45 51 54 55 56 56 55 56 57 57 58 55 53 54 56 59 60 59 59 56 56 56 55 53 52 51 47 46 45 44 44 45 41 40 40 37 34 32 34 32
40 43 45 46 46 49 55 58 55 55 56 57 58 58 58 57 58 60 58 56 57 57 56 54 55 55 53 51 47 46 49 45 45 44 40 38 35 35 35 33 33 32 32
40 41 42 45 47 49 53 55 54 53 56 59 60 60 61 61 60 61 59 57 57 56 55 55 54 52 51 50 46 48 47 46 42 44 40 36 37 36 34 33 32 29 29
40 41 41 43 47 50 52 55 54 54 54 59 61 62 62 62 62 61 60 58 58 56 56 54 51 49 49 47 47 46 44 44 44 43 39 38 36 38 35 33 31 30 29
35 39 41 43 45 49 54 58 57 55 56 60 61 62 61 60 61 61 60 59 57 55 53 51 48 47 45 47 46 43 40 43 43 42 44 41 41 40 35 33 32 32 30
35 35 38 42 45 48 54 60 59 58 58 61 61 60 60 60 60 60 59 57 56 52 49 48 46 45 44 45 44 41 38 40 44 42 43 41 39 35 33 33 33 31 31
38 40 40 41 44 48 51 55 58 58 59 60 60 60 58 59 60 60 59 57 54 51 48 47 45 44 45 44 41 38 38 40 42 43 44 41 38 36 35 36 32 30 29
33 39 44 47 48 49 50 54 57 57 57 60 60 60 59 58 59 59 58 56 54 52 48 45 43 45 43 41 39 39 37 39 42 42 42 40 34 38 37 35 35 32 32
33 39 45 48 50 51 53 54 56 55 55 56 59 59 59 58 57 56 54 52 51 49 45 44 45 42 41 39 40 40 42 43 41 42 42 39 38 37 37 36 35 31 27
30 36 44 47 50 53 54 55 56 57 57 56 56 56 55 54 54 53 51 49 48 47 47 44 42 41 41 39 40 41 41 39 39 41 42 41 38 37 37 35 35 31 32
32 35 43 47 51 53 54 56 56 55 55 54 54 54 53 53 53 52 51 49 47 44 42 42 40 41 41 41 41 39 38 40 40 41 40 39 38 38 37 34 36 34 31
38 43 46 49 51 53 53 53 53 53 53 51 50 50 48 46 46 45 45 45 43 42 41 40 41 41 39 39 38 38 40 40 39 40 38 35 34 36 35 35 35 35 33
42 44 47 49 51 51 51 51 50 50 48 46 45 44 43 42 41 40 39 39 40 40 41 41 40 40 39 38 38 37 39 39 38 37 33 29 25 31 29 33 34 34 34
43 44 45 46 47 47 47 47 45 45 44 43 42 42 42 40 40 40 40 41 41 41 41 40 39 39 39 38 37 37 39 37 33 32 30 30 30 31 32 32 33 34 34
41 41 42 43 43 43 43 43 42 42 41 41 41 41 41 40 40 40 41 41 41 41 41 40 39 39 39 37 37 37 34 32 31 29 29 29 30 31 33 31 33 32 32
39 40 41 41 41 41 41 41 40 40 39 40 40 40 40 40 40 41 41 41 40 39 37 36 35 34 33 35 35 33 33 32 32 31 31 31 31 31 32 33 31 31 31
38 40 40 40 40 41 41 39 39 39 39 40 40 40 40 40 39 37 34 32 31 31 34 33 33 32 31 32 34 33 32 33 33 32 32 33 33 34 34 34 34 32 32
37 38 39 40 40 40 40 39 38 39 39 39 38 35 29 25 26 29 28 27 29 32 33 33 33 33 33 31 31 31 29 27 28 28 31 32 31 31 31 32 33 34 32
37 38 39 39 39 39 39 38 38 37 36 32 28 27 26 26 26 27 28 26 26 27 27 25 27 25 27 27 29 27 26 25 26 26 27 27 27 29 31 32 32 33 34
36 37 38 38 38 37 36 36 35 32 30 29 28 27 26 25 22 19 17 19 24 25 22 22 23 23 25 26 24 22 23 23 24 24 26 26 27 27 28 30 32 33 34
36 37 37 36 34 33 32 30 29 29 26 26 24 24 21 18 17 16 18 21 23 22 22 24 22 26 25 23 20 20 21 23 22 25 27 29 29 28 28 28 29 31 33
36 35 35 33 31 30 29 28 27 26 24 22 21 24 24 21 15 14 20 23 22 22 22 20 21 22 20 18 18 19 19 20 21 23 24 27 28 27 26 29 30 32 33
Lifted_Index
-3 -2 -2 -1 -0 0 0 0 0 -0 -1 -2 -1 0 1 1 -0 -1 -2 -3 -3 -3 -2 -2 -1 0 1 2 2 2 4 6 7 7 6 5 6 7 8 8 9 9 9
-3 -3 -2 -2 -1 -1 -1 -0 -0 -1 -2 -2 -2 -1 0 1 0 -1 -3 -3 -4 -3 -2 -2 -1 0 1 1 2 2 4 6 7 6 5 5 5 7 8 8 9 9 9
-2 -2 -3 -3 -2 -2 -2 -1 -2 -2 -2 -3 -2 -1 -0 0 -1 -2 -3 -3 -3 -3 -2 -1 -0 0 1 2 2 3 5 6 7 6 5 4 5 6 7 8 8 9 9
-2 -2 -2 -2 -3 -3 -2 -2 -2 -3 -3 -3 -3 -2 -1 -1 -2 -2 -3 -3 -3 -3 -2 -1 0 1 1 2 3 4 6 7 6 6 5 5 5 6 6 7 8 8 9
-2 -2 -2 -2 -2 -3 -3 -3 -3 -3 -3 -3 -3 -3 -2 -2 -2 -3 -3 -3 -2 -2 -1 -0 0 1 2 2 4 5 6 7 6 6 6 6 7 7 6 6 7 7 8
-2 -2 -2 -2 -2 -3 -3 -3 -3 -3 -3 -4 -4 -4 -4 -3 -3 -3 -2 -2 -2 -1 -0 0 0 1 1 3 4 5 6 7 7 6 6 7 8 8 7 7 7 7 8
-2 -2 -3 -3 -3 -3 -3 -4 -3 -3 -4 -4 -4 -4 -5 -4 -3 -2 -2 -1 -1 -1 -0 -0 -0 1 2 3 4 5 6 7 7 7 7 8 8 8 8 8 8 8 8
-2 -2 -3 -3 -4 -4 -4 -4 -4 -4 -4 -4 -4 -4 -5 -4 -3 -2 -1 -1 -1 -1 -0 -0 -0 1 2 4 5 6 7 7 7 8 8 9 8 8 8 9 9 9 8
-2 -2 -3 -3 -4 -5 -5 -6 -6 -5 -4 -4 -4 -4 -4 -4 -3 -2 -2 -1 -1 -1 -1 -0 0 1 3 4 5 6 7 8 8 9 9 9 8 8 9 9 9 9 9
-2 -2 -3 -3 -4 -5 -6 -6 -6 -6 -5 -5 -4 -4 -4 -3 -2 -2 -2 -2 -1 -1 -1 -0 1 2 3 4 6 7 8 8 9 9 9 9 9 9 9 9 9 9 10
-2 -2 -3 -3 -4 -4 -5 -6 -6 -6 -6 -5 -5 -4 -3 -3 -2 -2 -2 -2 -1 -1 -0 0 1 2 3 4 6 8 8 8 9 9 9 9 9 9 9 9 10 10 10
-2 -2 -3 -4 -4 -4 -5 -6 -6 -6 -6 -6 -5 -4 -3 -3 -2 -2 -2 -1 -1 -0 0 1 1 2 3 5 7 9 9 8 9 9 9 9 9 9 9 9 10 10 10
-1 -2 -3 -4 -4 -4 -5 -5 -6 -6 -6 -6 -5 -4 -3 -3 -2 -2 -2 -1 -0 0 1 1 2 3 4 6 8 9 9 8 8 9 9 9 9 9 9 9 9 9 9
-0 -2 -3 -4 -4 -5 -5 -5 -5 -5 -5 -5 -4 -3 -2 -2 -2 -1 -1 -0 0 1 1 2 3 4 6 7 9 9 9 9 8 8 9 9 9 9 9 8 8 8 8
-0 -1 -3 -4 -4 -4 -5 -5 -4 -4 -3 -3 -3 -2 -2 -1 -1 -0 0 1 2 2 3 4 5 6 7 8 8 9 9 9 9 8 9 9 9 9 9 9 8 8 8
-1 -2 -3 -3 -4 -4 -4 -4 -3 -3 -2 -2 -1 -1 -0 0 1 1 2 3 4 5 6 6 7 8 8 9 9 10 10 9 9 9 9 10 10 10 9 9 9 8 8
-1 -1 -2 -2 -3 -3 -3 -2 -2 -1 -0 0 1 2 2 2 3 3 4 5 6 7 8 8 9 9 10 10 10 10 10 10 10 10 10 11 10 10 10 9 9 8 7
1 1 0 -0 -1 -1 -0 0 1 2 2 3 3 4 4 4 4 5 6 7 8 8 9 10 10 10 11 11 11 11 11 11 11 11 11 11 11 10 10 9 8 7 6
2 2 2 2 2 2 2 3 3 4 4 5 5 5 6 6 6 7 8 9 9 10 10 11 11 11 11 12 12 12 13 13 13 12 12 11 11 10 10 9 7 6 5
3 3 3 3 3 4 4 4 4 5 5 6 6 7 7 8 8 9 10 11 11 12 12 12 12 12 13 13 13 14 14 14 14 13 13 12 11 10 10 9 7 6 5
4 4 4 4 4 4 4 4 5 5 6 7 7 8 9 10 11 12 13 13 13 13 13 13 13 14 14 14 14 14 15 15 15 15 14 13 12 11 10 9 7 6 6
4 4 4 5 5 5 5 5 5 6 6 7 8 9 11 12 13 14 14 14 14 14 14 15 15 15 15 15 15 15 16 16 17 16 15 14 13 12 10 9 8 7 6
4 5 5 5 5 5 5 5 6 6 7 8 9 11 13 14 15 15 15 15 15 15 16 16 16 16 16 17 17 17 17 18 18 17 16 15 14 12 11 9 8 7 7
5 5 5 5 5 5 6 6 7 8 8 9 11 13 15 16 16 16 17 17 16 17 17 17 17 18 18 18 19 19 19 19 19 18 17 15 13 12 10 9 8 7 7
5 5 5 5 5 6 7 8 9 10 10 11 13 15 16 17 17 17 17 18 18 18 18 18 19 19 19 19 20 20 20 19 19 18 16 13 12 10 9 8 7 6 6
5 5 5 5 5 6 7 9 11 11 12 13 15 16 17 17 17 17 17 18 19 19 19 20 20 20 20 20 20 20 20 19 18 17 15 12 11 10 9 8 6 5 5